Regional Weather Roundup
Issued by NWS

Home | Current Version | Previous Version | Graphics & Text | Print | Product List | Glossary On
Versions: 1 2 3 4 5 6 7 8 9 10 11 12 13 14 15 16 17 18 19 20 21 22 23 24 25 26 27 28 29 30 31 32 33 34 35 36 37 38 39 40 41 42 43 44 45 46 47 48 49 50
000
ASUS43 KIND 200059
RWRIN

WEATHER ROUNDUP FOR INDIANA
NATIONAL WEATHER SERVICE INDIANAPOLIS IN
800 PM EST MON FEB 19 2018

NOTE: "FAIR" INDICATES FEW OR NO CLOUDS BELOW 12,000 FEET WITH NO
SIGNIFICANT WEATHER AND/OR OBSTRUCTIONS TO VISIBILITY.

* - STATION DOES NOT REPORT WEATHER SUCH AS PRECIPITATION OR FOG.

+ - STATION NOT QUALITY CONTROLLED BY THE NATIONAL WEATHER SERVICE.
    USE DATA WITH CAUTION...ESPECIALLY DEWPOINT AND RELATIVE
    HUMIDITY OBSERVATIONS.

INZ001>003-010>013-019-020-200200-
NORTHWEST INDIANA

CITY           SKY/WX    TMP DP  RH WIND       PRES   REMARKS
MICHIGAN CITY+ DRIZZLE   55  55 100 S14G20    29.88S
MONTICELLO +   LGT RAIN  60  58  95 S16       29.95R
RENSSELAER +   LGT RAIN  59  54  82 S25G35    29.90F

$$

LMZ046-743>745-200200-
SOUTHERN LAKE MICHIGAN

STATION/POSITION TIME  TEMP    WIND        PRES    WAVE
                       AIR SEA DIR/SP/G            HT
                 (UTC) (F)     (DEG/KT/KT) (MB)    (FT)
BURNS HARBOR     0040   57     190/ 18/ 25 1011.9R
MICHIGAN CITY    0030   57     180/ 20/ 27   N/A

$$

INZ004-005-014>016-021>024-200200-
NORTH CENTRAL INDIANA

CITY           SKY/WX    TMP DP  RH WIND       PRES   REMARKS
ELKHART        DRIZZLE   55  54  94 SW12      29.92F
GOSHEN         LGT RAIN  57  55  93 S16       29.93F FOG
SOUTH BEND     LGT RAIN  56  55  97 S18G26    29.89F
WARSAW +       LGT RAIN  57  55  94 S7        29.96S

$$

INZ006>009-017-018-025>027-200200-
NORTHEAST INDIANA

CITY           SKY/WX    TMP DP  RH WIND       PRES   REMARKS
AUBURN +       LGT RAIN  59  55  88 SW10G18   29.99R
FORT WAYNE     LGT RAIN  60  57  89 SW13      30.00R
KENDALLVILLE + LGT RAIN  57  57 100 SW13G18   29.97S

$$

INZ028-029-035-036-043>045-051>053-200200-
WEST CENTRAL INDIANA

CITY           SKY/WX    TMP DP  RH WIND       PRES   REMARKS
CRAWFORDSVL +  LGT RAIN  58  58 100 S6        29.96F
GREENCASTLE +  CLOUDY    57  55  94 CALM      29.99S
LAFAYETTE      LGT RAIN  60  57  89 SW8       29.96R
TERRE HAUTE    CLOUDY    60  57  89 S7        29.97S

$$

INZ030>032-037>040-046>048-054>057-064-065-200200-
CENTRAL INDIANA

CITY           SKY/WX    TMP DP  RH WIND       PRES   REMARKS
GREENWOOD *+   CLOUDY    60 -47   1 S7        30.01S
INDIANAPOLIS   CLOUDY    59  56  89 SE3       30.00S
-EAGLE CREEK   CLOUDY    57  54  89 SE3       29.99S
KOKOMO +       CLOUDY    61  57  87 SW13      29.99R
MT COMFORT *+  CLOUDY    55  55 100 CALM      30.01F
SHELBYVILLE    CLOUDY    66  54  65 S9        30.01S

$$

INZ033-034-041-042-049-050-058-059-200200-
EAST CENTRAL INDIANA

CITY           SKY/WX    TMP DP  RH WIND       PRES   REMARKS
MUNCIE         LGT RAIN  61  56  83 S3        30.01R
RICHMOND +     FAIR      59  55  88 S13       30.06R

$$

INZ060-061-067>069-081>083-085>088-200200-
SOUTHWEST INDIANA

CITY           SKY/WX    TMP DP  RH WIND       PRES   REMARKS
EVANSVILLE     FAIR      68  55  63 S13G24    30.03S
HUNTINGBURG +  FAIR      67  55  65 S16       30.05R

$$

INZ062-063-066-070>080-084-089>092-200200-
SOUTH CENTRAL AND SOUTHEAST INDIANA

CITY           SKY/WX    TMP DP  RH WIND       PRES   REMARKS
BLOOMINGTON    FAIR      69  53  56 S16G29    30.00S
FRENCH LICK *+ FAIR      68  46  45 S8G17     30.05R
MADISON *+     FAIR      66  52  59 S13       30.09R

$$





USA.gov is the U.S. government's official web portal to all federal, state and local government web resources and services.